Voltar ao catálogo

COSMOS 1431

AtivoMilitarLEO
NORAD 13763·PAYLOAD·🇷🇺 Russia

Lançado Jan 19, 1983 de Plesetsk Cosmodrome

Loading…

Próximas Passagens (próximas 24 horas)

TLE

AtualizadoSource: Space-Track

Época: Sep 14, 2026, 13:25 UTC

1 13763U 83002C   26257.55946308 -.00000003  00000-0  83328-4 0  9997
2 13763  74.0235 300.0296 0010953 146.9665   7.4638 12.47751445988337

Acompanhe COSMOS 1431 em tempo real com AllMySat

Download on the App Store